| time (UTC) | temp F | wind direction | speed MPH | gust MPH | rain 1hr in | rain 24hr in | rain mn in | humidity % | barometer mb |
| 20260509121546 | 49 | 86 | 0.0 | 3.0 | 0.01 | 0.03 | 0.03 | 88 | 1014.3 |
| 20260509120057 | 48 | 69 | 0.0 | 2.0 | 0.02 | 0.03 | 0.03 | 89 | 1014.0 |
| 20260509114539 | 48 | 75 | 1.0 | 3.0 | 0.03 | 0.03 | 0.03 | 89 | 1014.3 |
| 20260509113036 | 46 | 76 | 0.0 | 1.0 | 0.03 | 0.03 | 0.03 | 88 | 1014.6 |
| 20260509111535 | 46 | 77 | 1.0 | 4.0 | 0.02 | 0.02 | 0.02 | 88 | 1014.7 |
| 20260509110042 | 46 | 88 | 0.0 | 1.0 | 0.01 | 0.01 | 0.01 | 87 | 1014.7 |
| 20260509104534 | 46 | 88 | 0.0 | 0.0 | 0.00 | 0.00 | 0.00 | 87 | 1014.8 |
| 20260509103036 | 46 | 88 | 0.0 | 0.0 | 0.00 | 0.00 | 0.00 | 85 | 1014.4 |
| 20260509101542 | 46 | 88 | 0.0 | 0.0 | 0.00 | 0.00 | 0.00 | 83 | 1014.5 |
| 20260509100028 | 46 | 88 | 1.0 | 2.0 | 0.00 | 0.00 | 0.00 | 85 | 1014.5 |
| 20260509094528 | 45 | 86 | 0.0 | 0.0 | 0.00 | 0.00 | 0.00 | 86 | 1013.9 |
| 20260509093024 | 45 | 86 | 0.0 | 0.0 | 0.00 | 0.00 | 0.00 | 85 | 1013.6 |
| 20260509091527 | 44 | 86 | 0.0 | 0.0 | 0.00 | 0.00 | 0.00 | 85 | 1013.3 |
| 20260509090022 | 44 | 86 | 0.0 | 0.0 | 0.00 | 0.00 | 0.00 | 86 | 1013.3 |
| 20260509084526 | 44 | 86 | 0.0 | 1.0 | 0.00 | 0.00 | 0.00 | 86 | 1013.3 |
| 20260509083020 | 43 | 86 | 0.0 | 0.0 | 0.00 | 0.00 | 0.00 | 86 | 1013.3 |
| 20260509081519 | 43 | 86 | 0.0 | 0.0 | 0.00 | 0.00 | 0.00 | 86 | 1013.3 |
| 20260509080018 | 44 | 86 | 0.0 | 1.0 | 0.00 | 0.00 | 0.00 | 85 | 1013.4 |
| 20260509074518 | 44 | 86 | 0.0 | 0.0 | 0.00 | 0.00 | 0.00 | 84 | 1013.5 |
| 20260509073028 | 44 | 86 | 0.0 | 0.0 | 0.00 | 0.00 | 0.00 | 84 | 1013.7 |
| 20260509071516 | 44 | 86 | 0.0 | 0.0 | 0.00 | 0.00 | 0.00 | 84 | 1013.8 |
| 20260509070016 | 43 | 86 | 0.0 | 0.0 | 0.00 | 0.00 | 0.00 | 83 | 1013.7 |
| 20260509064515 | 44 | 86 | 0.0 | 0.0 | 0.00 | 0.00 | 0.00 | 83 | 1013.8 |
| 20260509063014 | 44 | 86 | 0.0 | 0.0 | 0.00 | 0.00 | 0.00 | 83 | 1013.8 |
| 20260509061510 | 43 | 86 | 0.0 | 0.0 | 0.00 | 0.00 | 0.00 | 82 | 1013.9 |
| 20260509060015 | 43 | 86 | 0.0 | 0.0 | 0.00 | 0.00 | 0.00 | 82 | 1013.7 |
| 20260509054508 | 42 | 86 | 0.0 | 0.0 | 0.00 | 0.00 | 0.00 | 82 | 1013.7 |
| 20260509053007 | 42 | 86 | 0.0 | 0.0 | 0.00 | 0.00 | 0.00 | 81 | 1013.6 |
| 20260509051508 | 41 | 86 | 0.0 | 0.0 | 0.00 | 0.00 | 0.00 | 80 | 1013.6 |
| 20260509050003 | 41 | 86 | 0.0 | 0.0 | 0.00 | 0.00 | 0.00 | 79 | 1013.7 |
| 20260509044502 | 42 | 86 | 0.0 | 0.0 | 0.00 | 0.00 | 0.00 | 77 | 1013.6 |
| 20260509043100 | 42 | 86 | 0.0 | 0.0 | 0.00 | 0.00 | 0.00 | 77 | 1013.5 |
| 20260509041558 | 42 | 86 | 0.0 | 1.0 | 0.00 | 0.00 | 0.00 | 76 | 1013.4 |
| 20260509040124 | 42 | 86 | 0.0 | 0.0 | 0.00 | 0.00 | 0.00 | 76 | 1013.3 |
| 20260509034559 | 42 | 86 | 0.0 | 0.0 | 0.00 | 0.00 | 0.00 | 76 | 1013.2 |
| 20260509033053 | 43 | 86 | 0.0 | 0.0 | 0.00 | 0.00 | 0.00 | 75 | 1013.1 |
| 20260509031556 | 43 | 86 | 0.0 | 0.0 | 0.00 | 0.00 | 0.00 | 75 | 1013.0 |
| 20260509030051 | 44 | 86 | 0.0 | 0.0 | 0.00 | 0.00 | 0.00 | 74 | 1013.1 |
| 20260509024549 | 43 | 86 | 0.0 | 0.0 | 0.00 | 0.00 | 0.00 | 73 | 1012.9 |
| 20260509023049 | 44 | 86 | 0.0 | 0.0 | 0.00 | 0.00 | 0.00 | 73 | 1012.9 |
| 20260509021547 | 44 | 86 | 0.0 | 0.0 | 0.00 | 0.00 | 0.00 | 71 | 1012.7 |
| 20260509020045 | 44 | 86 | 0.0 | 0.0 | 0.00 | 0.00 | 0.00 | 70 | 1012.5 |
| 20260509014544 | 45 | 86 | 0.0 | 0.0 | 0.00 | 0.00 | 0.00 | 69 | 1012.4 |
| 20260509013047 | 46 | 86 | 0.0 | 0.0 | 0.00 | 0.00 | 0.00 | 66 | 1012.3 |
| 20260509011553 | 47 | 86 | 0.0 | 0.0 | 0.00 | 0.00 | 0.00 | 65 | 1011.9 |
| 20260509010042 | 48 | 86 | 0.0 | 0.0 | 0.00 | 0.00 | 0.00 | 63 | 1011.7 |
| 20260509004541 | 49 | 86 | 0.0 | 0.0 | 0.00 | 0.00 | 0.00 | 61 | 1011.3 |
| 20260509003032 | 51 | 86 | 0.0 | 2.0 | 0.00 | 0.00 | 0.00 | 56 | 1011.0 |
| 20260509001531 | 52 | 89 | 0.0 | 4.0 | 0.00 | 0.00 | 0.00 | 53 | 1010.7 |
| 20260509000027 | 53 | 228 | 0.0 | 5.0 | 0.00 | 0.00 | 0.00 | 52 | 1010.3 |
| 20260508234527 | 54 | 183 | 0.0 | 5.0 | 0.00 | 0.00 | 0.00 | 53 | 1010.1 |
| 20260508233026 | 54 | 345 | 1.0 | 4.0 | 0.00 | 0.00 | 0.00 | 54 | 1009.8 |
| 20260508231525 | 54 | 325 | 0.0 | 2.0 | 0.00 | 0.00 | 0.00 | 55 | 1009.7 |
| 20260508230025 | 55 | 114 | 0.0 | 5.0 | 0.00 | 0.00 | 0.00 | 54 | 1009.7 |
| 20260508224523 | 55 | 345 | 0.0 | 8.0 | 0.00 | 0.00 | 0.00 | 53 | 1009.6 |
| 20260508223037 | 56 | 24 | 1.0 | 9.0 | 0.00 | 0.00 | 0.00 | 53 | 1009.4 |
| 20260508221523 | 57 | 5 | 1.0 | 6.0 | 0.00 | 0.00 | 0.00 | 51 | 1009.3 |
| 20260508220024 | 57 | 344 | 2.0 | 8.0 | 0.00 | 0.00 | 0.00 | 50 | 1009.3 |
| 20260508214522 | 57 | 38 | 2.0 | 11.0 | 0.00 | 0.00 | 0.00 | 49 | 1009.3 |
| 20260508213030 | 57 | 12 | 2.0 | 11.0 | 0.00 | 0.00 | 0.00 | 50 | 1009.2 |
| 20260508211520 | 57 | 293 | 2.0 | 11.0 | 0.00 | 0.00 | 0.00 | 50 | 1009.2 |
| 20260508210020 | 58 | 84 | 3.0 | 11.0 | 0.00 | 0.00 | 0.00 | 51 | 1008.8 |
| 20260508204525 | 58 | 101 | 1.0 | 9.0 | 0.00 | 0.00 | 0.00 | 50 | 1008.8 |
| 20260508203019 | 58 | 79 | 4.0 | 9.0 | 0.00 | 0.00 | 0.00 | 51 | 1008.8 |
| 20260508201520 | 57 | 178 | 1.0 | 4.0 | 0.00 | 0.00 | 0.00 | 56 | 1008.6 |
| 20260508200018 | 56 | 96 | 1.0 | 8.0 | 0.00 | 0.00 | 0.00 | 55 | 1008.7 |
| 20260508194517 | 58 | 296 | 2.0 | 10.0 | 0.00 | 0.00 | 0.00 | 51 | 1008.6 |
| 20260508193017 | 59 | 189 | 2.0 | 9.0 | 0.00 | 0.00 | 0.00 | 46 | 1008.1 |
| 20260508191516 | 57 | 192 | 1.0 | 7.0 | 0.00 | 0.00 | 0.00 | 57 | 1008.0 |
| 20260508190022 | 57 | 165 | 3.0 | 11.0 | 0.00 | 0.00 | 0.00 | 55 | 1007.9 |
| 20260508184515 | 58 | 141 | 4.0 | 8.0 | 0.00 | 0.00 | 0.00 | 52 | 1007.9 |
| 20260508183014 | 58 | 149 | 5.0 | 14.0 | 0.00 | 0.00 | 0.00 | 52 | 1007.9 |
| 20260508181514 | 59 | 186 | 3.0 | 10.0 | 0.00 | 0.00 | 0.00 | 47 | 1007.9 |
| 20260508180018 | 61 | 187 | 3.0 | 14.0 | 0.00 | 0.00 | 0.00 | 47 | 1007.9 |
| 20260508174513 | 59 | 163 | 3.0 | 11.0 | 0.00 | 0.00 | 0.00 | 48 | 1008.1 |
| 20260508173012 | 59 | 198 | 2.0 | 10.0 | 0.00 | 0.00 | 0.00 | 49 | 1008.2 |
| 20260508171514 | 59 | 144 | 3.0 | 12.0 | 0.00 | 0.00 | 0.00 | 46 | 1008.2 |
| 20260508170010 | 61 | 146 | 4.0 | 7.0 | 0.00 | 0.00 | 0.00 | 43 | 1008.4 |
| 20260508164509 | 62 | 202 | 3.0 | 11.0 | 0.00 | 0.00 | 0.00 | 46 | 1008.4 |
| 20260508163009 | 60 | 57 | 1.0 | 9.0 | 0.00 | 0.00 | 0.00 | 47 | 1008.5 |
| 20260508161509 | 59 | 24 | 1.0 | 3.0 | 0.00 | 0.00 | 0.00 | 41 | 1008.7 |
| 20260508160012 | 61 | 174 | 1.0 | 5.0 | 0.00 | 0.00 | 0.00 | 44 | 1008.7 |
| 20260508154506 | 59 | 162 | 2.0 | 6.0 | 0.00 | 0.00 | 0.00 | 42 | 1009.2 |
| 20260508153005 | 60 | 76 | 2.0 | 8.0 | 0.00 | 0.00 | 0.00 | 43 | 1009.3 |
| 20260508151503 | 59 | 232 | 2.0 | 8.0 | 0.00 | 0.00 | 0.00 | 41 | 1009.2 |
| 20260508150003 | 58 | 115 | 2.0 | 9.0 | 0.00 | 0.00 | 0.00 | 41 | 1009.3 |
| 20260508144600 | 58 | 18 | 1.0 | 7.0 | 0.00 | 0.00 | 0.00 | 43 | 1009.4 |
| 20260508143106 | 58 | 223 | 1.0 | 7.0 | 0.00 | 0.00 | 0.00 | 47 | 1009.6 |
| 20260508141605 | 57 | 267 | 1.0 | 7.0 | 0.00 | 0.00 | 0.00 | 42 | 1009.6 |
| 20260508140055 | 56 | 296 | 1.0 | 6.0 | 0.00 | 0.00 | 0.00 | 47 | 1009.7 |
| 20260508134553 | 56 | 5 | 1.0 | 6.0 | 0.00 | 0.00 | 0.00 | 46 | 1009.9 |
| 20260508133058 | 55 | 113 | 2.0 | 7.0 | 0.00 | 0.00 | 0.00 | 43 | 1010.0 |
| 20260508131549 | 55 | 360 | 1.0 | 8.0 | 0.00 | 0.00 | 0.00 | 47 | 1010.1 |
| 20260508130053 | 54 | 299 | 2.0 | 5.0 | 0.00 | 0.00 | 0.00 | 49 | 1010.0 |
| 20260508124544 | 51 | 360 | 1.0 | 4.0 | 0.00 | 0.00 | 0.00 | 52 | 1010.1 |
| 20260508123043 | 52 | 304 | 0.0 | 4.0 | 0.00 | 0.00 | 0.00 | 57 | 1010.1 |